SL-16 DEB, 22598

Orbit data source: Space-Track

SL-16 DEB, 22598 is space debris in LEO originally from a launch on Fri, 25 Dec 1992 UTC launched from the Tyuratam Missile And Space Complex (TTMTR). Debris objects in space refer to the collection of defunct objects orbiting the Earth. Examples of debris include non-operational satellites, rocket bodies, and fragments generated from explosions, collisions, or faulty payload assembly.

Loading next visibility...
Identifier
22598, 1992-093HX
Orbit
LEO
Country
Flag of CISCIS
Related business
Manufacturer
Unknown
Mission
Spacecraft
Bus & Motor
Unknown
Mass
Unknown
Launch date (UTC)
1992-12-25 (33 years ago)
Launch vehicle
Unknown
Launch site
Tyuratam Missile And Space Complex (TTMTR)
Object type
Payload
Rocket body
Debris
Shape & HBR
Unknown shape, 0.1 m
Radar Cross Section
Small (<0.1 m²)

Expand to show TLE details & history
Last TLE update: 11 hours ago

TLE from 11 hours ago
0 SL-16 DEB
1 22598U 92093HX  26126.94806470  .00000818  00000-0  51755-3 0  9997
2 22598  70.6439  74.0212 0086494  32.6608 327.9814 14.05299962701637
Epoch: 2026-05-06T22:45Z
TLE epoch observation values (Epoch: 2026-05-06T22:45:12.790Z)
Latitude
0.00003°
Longitude
-132.08332°
Altitude
824.817 km
Speed
7.468 km/s
True Right ascension
04h 56m 05s
True Declination
0° 00' 00"
Sunlit
Object was in daylight at epoch
Visualization orbit readout
Latitude
Unknown
Longitude
Unknown
Altitude
Unknown
Speed
Unknown
Apparent Right ascension
Unknown
Apparent Declination
Unknown
Sunlit
N/A
Visualization observer readout
Local Sidereal Time
17:23:07
Azimuth
Unknown
Elevation
Unknown
Doppler factor
Unknown
Orbital elements
Apogee altitude
936.191 km
Perigee altitude
810.747 km
Semi-major axis
7,251.606 km
Eccentricity
0.00865
Inclination
70.6439°
RAAN
74.0212°
Arg. of periapsis
32.6608°
True anomaly
327.45105°
Mean anomaly
327.9814°
Eccentric anomaly
327.71671°
Mean motion
3.51473 °/min
Orbital period
102.43 mins
BSTAR
0.00051755
Loading maneuver chart data...
Computing Atmospheric mass density...
Loading historical data...
Loading historical data...
Loading historical data...
Loading historical data...
Loading historical data...
Loading historical data...
Loading historical data...

Documentation

Showing up to 5 results
|